Miscellaneous Local Product
Issued by NWS North Platte, NE

Home | Current Version | Previous Version | Text Only | Print | Product List | Glossary On
Versions: 1 2 3 4 5 6 7 8 9 10 11 12 13 14 15 16 17 18 19 20 21 22 23 24 25 26 27 28 29 30 31 32 33 34 35 36 37 38 39 40 41 42 43 44 45 46 47 48 49 50
147
AXUS43 KLBF 282010
MISLBF


WESTERN AND NORTH CENTRAL NEBRASKA HOURLY WEATHER ROUNDUP
NATIONAL WEATHER SERVICE NORTH PLATTE NE
300 PM CDT SUN MAY 28 2017

NOTE: "FAIR" INDICATES FEW OR NO CLOUDS BELOW 12,000 FEET WITH NO
SIGNIFICANT WEATHER AND/OR OBSTRUCTIONS TO VISIBILITY.

NOTE: STATIONS NOT REPORTING VARIABLES SUCH AS SKY/WEATHER OR
PRESSURE ARE PROVIDED BY RAWS AND APRS NETWORKS AND ARE NOT UNDER
NATIONAL WEATHER SERVICE QUALITY CONTROL.

...OBSERVATIONS IN AND NEAR THE EASTERN PANHANDLE OF NEBRASKA...

CITY           SKY/WX    TMP DP  RH WIND       PRES   REMARKS
PINE RIDGE     CLOUDY    68  42  38 W8        30.09F
GORDON         MOCLDY    68  40  35 NW6       30.09F
CHADRON        MOSUNNY   71  47  42 NW8       30.07F
ALLIANCE       PTSUNNY   70  44  39 NW15G24   30.12F
SIDNEY         MOSUNNY   72  41  32 NW16G29   30.17F
CRESCENT LAKE    N/A     73  40  29 NW13G23     N/A
$$

...OBSERVATIONS IN NORTHERN NEBRASKA AND FAR SOUTHERN SOUTH DAKOTA...

CITY           SKY/WX    TMP DP  RH WIND       PRES   REMARKS
WINNER         FAIR      77  38  24 NW17G30   29.97F
VALENTINE      SUNNY     74  31  20 W15G24    30.03F
THEDFORD       MOSUNNY   74  41  30 N18G25    30.07S
AINSWORTH      MOSUNNY   73  40  30 NW16G26   30.03F
O`NEILL        SUNNY     74  34  22 NW25G31   29.99F
ORD            MOSUNNY   75  40  28 NW20G28   29.99S
BROKEN BOW     MOSUNNY   78  40  25 NW23G33   30.02F
VALENTINE NWR    N/A     74  38  26 N14G23      N/A
HALSEY           N/A     74  40  28 NW12G22     N/A
BUTTE            N/A     73  40  29 NW16G28     N/A
CHAMBERS         N/A     75  45  33 N6          N/A
EWING            N/A     76  42  29 NW13G20     N/A
$$

...OBSERVATIONS IN SOUTHWEST NEBRASKA AND FAR NORTHEAST COLORADO...

CITY           SKY/WX    TMP DP  RH WIND       PRES   REMARKS
WRAY           FAIR      77  34  20 NW15G21   30.15F
IMPERIAL       MOSUNNY   79  35  20 NW16G25   30.10F
OGALLALA       CLOUDY    75  43  32 W14G20    30.11S
NORTH PLATTE   CLOUDY    74  46  36 NW13G21   30.06S
MCCOOK         MOSUNNY   80  40  23 NW17G23   30.06F
LEXINGTON      PTSUNNY   75  41  29 NW13G18   30.04S
STAPLETON        N/A     70  54  56 CALM        N/A
GOTHENBURG       N/A     74  37  26 NW8         N/A
CALLAWAY         N/A     75  45  34 N12         N/A
$$

...OBSERVATIONS IN CENTRAL LINCOLN COUNTY AREA...

CITY           SKY/WX    TMP DP  RH WIND       PRES   REMARKS
N.P. AIRPORT   CLOUDY    74  46  36 NW13G21   30.06S
N.P. DOWNTOWN    N/A     73  46  38 NW5G13      N/A
N.P. SOUTHEAST   N/A     72  47  40 NW3G12      N/A
N.P. HILLCREST   N/A     72  43  34 NW13G20     N/A
$$

...SOME OBSERVATIONS FROM AROUND THE REGION...

CITY           SKY/WX    TMP DP  RH WIND       PRES   REMARKS
DENVER         MOSUNNY   68  32  26 VRB5      30.25F
LIMON          MOSUNNY   64  35  34 NW12G25   30.26F
ASPEN          SUNNY     60  16  18 CALM      30.32F
LARAMIE        PTSUNNY   61  30  31 N12G21    30.30F
CASPER         CLOUDY    60  44  55 NE23G30   30.23S
CHEYENNE       PTSUNNY   64  30  27 NW13G20   30.25F
SCOTTSBLUFF    MOSUNNY   73  40  30 NW17G26   30.14F
GRAND ISLAND   MOSUNNY   81  43  26 NW25G32   29.98F
OMAHA          MOSUNNY   82  43  25 NW15G30   29.86F
SIOUX FALLS    PTSUNNY   74  46  36 NW17G28   29.87F
PIERRE         SUNNY     78  36  21 W18G25    29.93F
RAPID CITY     SUNNY     75  38  26 NW15G29   30.05F
BISMARCK       PTSUNNY   70  40  33 N24G38    29.87S
KANSAS CITY    MOSUNNY   79  53  40 W16G22    29.94S
HILL CITY      MOSUNNY   81  40  23 N12G18    30.08F
WICHITA        MOSUNNY   82  47  29 NW14G21   30.03F
DODGE CITY     PTSUNNY   76  42  29 NW9       30.10F
OKLAHOMA CITY  MOSUNNY   81  55  40 N12G18    30.04F
DALLAS         CLOUDY    75  71  87 N7        29.98F
AMARILLO       SUNNY     76  37  24 N12G22    30.19F
$$




USA.gov is the U.S. government's official web portal to all federal, state and local government web resources and services.